Location: Auckland
(36.8670°S, 174.7670°E)
Time: 16:47:08
(UTC+12:00)

Cosmos 1151 Rocket - Pass Details

Date: 24 January 2019
Orbit: 593 x 615 km, 82.5° (Epoch: 18 April)

Event Time Altitude Azimuth Distance (km) Brightness Sun altitude
Exits shadow 21:47:57 - 354° (N) 2,818 6.1 -12.8°
Reaches altitude 10° 21:50:07 10° 354° (N) 1,934 5.3 -13.2°
Maximum altitude 21:54:24 89° 276° (W) 611 3.0 -13.9°
Drops below altitude 10° 21:58:47 10° 173° (S) 1,974 6.1 -14.5°
Sets 22:01:01 0° 173° (S) 2,889 6.9 -14.9°
